This demonstration page uses our WeatherBlox Daily Observations layout. Learn more.

Left ArrowRight Arrow

53.62937, 11.41316

Hourly Observations for April 22, 2021

Temp ( °F °C ) Dew Point ( °F °C ) Humidity (%) Winds ( mph kmh ) Pressure ( in mb ) Visibility ( mi km ) Precip ( " mm )
7:50 am 07:50 Mostly Sunny 43 6 34 1 71 71 W 9 15 30.03 1017 30 48 N/A
8:20 am 08:20 Mostly Sunny 43 6 34 1 71 71 W 9 15 30.06 1018 30 48 N/A
8:50 am 08:50 Partly Cloudy 45 7 34 1 66 66 W 12 19 30.06 1018 30 48 N/A
9:20 am 09:20 Partly Cloudy 45 7 32 0 61 61 WSW 9 15 30.06 1018 30 48 N/A
9:50 am 09:50 Partly Cloudy 46 8 32 0 57 57 VRB 9 15 30.06 1018 30 48 N/A
10:20 am 10:20 Partly Cloudy 48 9 32 0 54 54 W 9 15 30.06 1018 30 48 N/A
10:50 am 10:50 Partly Cloudy 50 10 34 1 54 54 W 10 17 30.09 1019 30 48 N/A
11:20 am 11:20 Partly Cloudy 50 10 34 1 54 54 W 14 22 30.09 1019 30 48 N/A
11:50 am 11:50 Partly Cloudy 50 10 30 -1 47 47 WSW 13 20 30.09 1019 30 48 N/A
12:20 pm 12:20 Partly Cloudy 48 9 30 -1 50 50 WNW 18 30 30.09 1019 30 48 N/A
12:50 pm 12:50 Partly Cloudy 50 10 28 -2 43 43 WNW 16 26 30.09 1019 30 48 N/A
1:20 pm 13:20 Mostly Sunny 52 11 28 -2 41 41 VRB 9 15 30.09 1019 7 11 N/A
1:50 pm 13:50 Mostly Cloudy 50 10 30 -1 47 47 W 9 15 30.09 1019 30 48 N/A
2:20 pm 14:20 Mostly Cloudy 52 11 32 0 47 47 W 12 19 30.09 1019 30 48 N/A
2:50 pm 14:50 Partly Cloudy 48 9 32 0 54 54 WSW 12 19 30.12 1020 30 48 N/A
3:20 pm 15:20 Partly Cloudy 50 10 32 0 50 50 WNW 16 26 30.12 1020 30 48 N/A
3:50 pm 15:50 Partly Cloudy 48 9 34 1 58 58 WSW 16 26 30.12 1020 30 48 N/A
4:20 pm 16:20 Partly Cloudy 48 9 36 2 62 62 WSW 15 24 30.12 1020 30 48 N/A
4:50 pm 16:50 Mostly Sunny 50 10 34 1 54 54 WSW 16 26 30.12 1020 30 48 N/A
5:20 pm 17:20 Mostly Sunny 50 10 34 1 54 54 WSW 13 20 30.12 1020 30 48 N/A
5:50 pm 17:50 Partly Cloudy 50 10 34 1 54 54 WSW 16 26 30.12 1020 30 48 N/A
6:20 pm 18:20 Partly Cloudy 48 9 34 1 58 58 WSW 14 22 30.12 1020 30 48 N/A
6:50 pm 18:50 Partly Cloudy 48 9 36 2 62 62 WSW 10 17 30.15 1021 30 48 N/A
7:20 pm 19:20 Partly Cloudy 48 9 36 2 62 62 W 12 19 30.15 1021 30 48 N/A
7:50 pm 19:50 Partly Cloudy 46 8 34 1 62 62 W 10 17 30.15 1021 30 48 N/A
8:20 pm 20:20 Partly Cloudy 46 8 34 1 62 62 W 7 11 30.15 1021 30 48 N/A
8:50 pm 20:50 Partly Cloudy 45 7 34 1 66 66 W 7 11 30.18 1022 30 48 N/A
9:20 pm 21:20 Partly Cloudy 45 7 34 1 66 66 VRB 7 11 30.18 1022 30 48 N/A
9:50 pm 21:50 Partly Cloudy 45 7 36 2 71 71 WSW 8 13 30.18 1022 30 48 N/A

Powered by AerisWeather